星链-6161 (STARLINK-6161 )

导读 | 星芒AI

STARLINK-6161 是 SpaceX Starlink 卫星互联网项目中的一颗低轨道卫星,属于第61次 Starlink 批次发射任务部署的卫星之一。该卫星运行在约 550 公里的高度,旨在为全球用户提供高速、低延迟的互联网服务。作为 Starlink 网络的一部分,STARLINK-6161 通过与其他卫星协同工作,增强网络覆盖和连接稳定性,特别是在偏远和网络基础设施薄弱的地区。该系统正在逐步构建一个全球性的宽带通信网络。

基本信息
目录编号:
56380
目录名称:
STARLINK-6161
国际标识:
2023-061G
轨道中心:
EARTH
卫星名称:
星链-6161
卫星全名:
星链-6161 (STARLINK-6161 )
卫星状态:
已陨落 最后检测时间 2025-07-28
发射日期:
2023-05-04 UTC
国别 :
美国 (US)
星等 :
--
轨道信息
数据来源 国际轨道数据
星历时间: 2025-07-28T00:18:04+0800
轨道信息已过期99天
半长轴: 6524.683km
偏心率: 0.0000446
轨道倾角: 42.994°
近地点辐角 246.164°
升交点赤经 308.590°
平近点角 263.686°
近地点: 146.256km
远地点: 146.84km
周期: 87.418分钟
每日圈数: 16.472658
详细信息
固有亮度:
5
最大亮度:
2.5
卫星平台:
Starlink v1.5
覆盖范围:
全球
运营商:
太空探索技术公司
运营商所在国:
美国
制造商(研发单位):
太空探索技术公司
制造商所在国:
美国
使用方式:
暂无
卫星简介
星链(Starlink)计划是由太空探索技术公司(SpaceX)提出的一个巨型低轨卫星互联网星座项目,计划在2019年至2024年间在太空搭建由约1.2万颗卫星组成的“星链”网络,其中1584颗将部署在地球上空550千米处的近地轨道,并从2020年开始工作。该卫星仍在工作。